Location: Darmstadt
(49.8706°N, 8.6494°E)
Time: 05:57:03
(UTC+01:00)

USA 215 - Pass Details

Date: 31 October 2020
Orbit: 1102 x 1106 km, 123.0° (Epoch: 28 November)

Event Time Altitude Azimuth Distance (km) Brightness Sun altitude
Exits shadow 19:28:37 40° 62° (ENE) 1,573 3.6 -23.8°
Maximum altitude 19:30:38 54° 13° (NNE) 1,326 3.6 -24.1°
Drops below altitude 10° 19:36:57 10° 299° (WNW) 2,966 6.4 -25.1°
Sets 19:39:29 0° 295° (WNW) 3,925 7.4 -25.5°
